Ukiah, CA

6:51 PM PDT on July 25, 2017 (GMT -0700)
Ukiah Municipal

Weather History for KUKI - November, 2012

Change the Weather History Date:

Wednesday, November 21, 2012

  Actual Average Record
Temperature  
Mean Temperature 51 °F 49 °F  
Max Temperature 60 °F 60 °F 78 °F (1929)
Min Temperature 41 °F 38 °F 23 °F (1914)
Degree Days  
Heating Degree Days 14 16  
Month to date heating degree days 223 269  
Since 1 July heating degree days 336 469  
Cooling Degree Days 0 0  
Month to date cooling degree days 1 0  
Year to date cooling degree days 983 835  
Moisture  
Dew Point 48 °F    
Average Humidity 77    
Maximum Humidity 100    
Minimum Humidity 53    
Precipitation  
Precipitation 0.09 in 0.16 in 3.16 in (1977)
Month to date precipitation 3.36 2.77  
Year to date precipitation 24.36 28.90  
Since 1 July precipitation 5.44  
Snow  
Snow 0.00 in - - ()
Month to date snowfall 0.0  
Since 1 July snowfall 0.0  
Since 1 September snowfall 0.0  
Snow Depth 0.00 in    
Sea Level Pressure  
Sea Level Pressure 30.10 in    
Wind  
Wind Speed 3 mph (SW)    
Max Wind Speed 12 mph    
Max Gust Speed 15 mph    
Visibility 8 miles    
Events Rain    
T = Trace of Precipitation, MM = Missing Value Source: NWS Daily Summary

Daily Weather History Graph

Daily Weather History Graph

Search for Another Location

Airport or City:

Trip Planner

Search our weather history database for the weather conditions in past years. The results will help you decide how hot, cold, wet, or windy it might be!

Date:

Astronomy

Nov. 21, 2012 Rise Set
Actual Time 7:03 AM PST 4:54 PM PST
Civil Twilight 6:34 AM PST 5:23 PM PST
Nautical Twilight 6:01 AM PST 5:55 PM PST
Astronomical Twilight 5:29 AM PST 6:27 PM PST
Moon 1:10 PM PST (11/21) 12:30 AM PST (11/21)
Length of Visible Light 10h 48m
Length of Day
9h 50m
Waxing Gibbous, 63% of the Moon is Illuminated
Nov 21
Waxing Gibbous
Nov 28
Full
Dec 6
Last Quarter
Dec 13
New
Dec 19
First Quarter

Hourly Weather History & Observations

Time (PST) Temp. Dew Point Humidity Pressure Visibility Wind Dir Wind Speed Gust Speed Precip Events Conditions
12:32 AM 51.8 °F 50.0 °F 94% 30.03 in 10.0 mi South 3.5 mph - N/A   Overcast
12:56 AM 52.0 °F 50.0 °F 93% 30.02 in 10.0 mi South 5.8 mph - N/A   Overcast
1:06 AM 53.6 °F 50.0 °F 88% 30.03 in 10.0 mi South 4.6 mph - N/A   Overcast
1:18 AM 51.8 °F 50.0 °F 94% 30.03 in 10.0 mi South 4.6 mph - N/A   Overcast
1:28 AM 51.8 °F 50.0 °F 94% 30.03 in 10.0 mi South 4.6 mph - 0.00 in Rain Light Rain
1:36 AM 51.8 °F 50.0 °F 94% 30.03 in 7.0 mi South 3.5 mph - 0.00 in Rain Light Rain
1:56 AM 52.0 °F 50.0 °F 93% 30.02 in 6.0 mi Calm Calm - 0.01 in Rain Light Rain
2:22 AM 51.8 °F 51.8 °F 100% 30.03 in 5.0 mi Calm Calm - 0.01 in Rain Light Rain
2:36 AM 53.6 °F 51.8 °F 94% 30.04 in 9.0 mi Calm Calm - 0.01 in   Overcast
2:56 AM 53.1 °F 51.1 °F 93% 30.03 in 4.0 mi NW 3.5 mph - 0.03 in Rain Light Rain
3:15 AM 53.6 °F 51.8 °F 94% 30.03 in 7.0 mi Calm Calm - 0.00 in   Overcast
3:23 AM 53.6 °F 51.8 °F 94% 30.03 in 8.0 mi Calm Calm - 0.00 in Rain Light Rain
3:30 AM 53.6 °F 51.8 °F 94% 30.03 in 10.0 mi Calm Calm - 0.00 in   Overcast
3:52 AM 53.6 °F 51.8 °F 94% 30.02 in 10.0 mi Calm Calm - 0.00 in   Overcast
3:56 AM 53.1 °F 52.0 °F 96% 30.01 in 10.0 mi South 3.5 mph - 0.00 in   Overcast
4:08 AM 53.6 °F 51.8 °F 94% 30.02 in 10.0 mi Calm Calm - N/A   Overcast
4:56 AM 52.0 °F 51.1 °F 97% 30.04 in 10.0 mi Calm Calm - N/A   Scattered Clouds
5:31 AM 51.8 °F 51.8 °F 100% 30.06 in 9.0 mi Calm Calm - N/A   Overcast
5:56 AM 52.0 °F 51.1 °F 97% 30.06 in 8.0 mi Calm Calm - N/A   Overcast
6:52 AM 51.8 °F 51.8 °F 100% 30.09 in 2.5 mi Calm Calm - 0.00 in Rain Light Rain
6:56 AM 52.0 °F 51.1 °F 97% 30.08 in 3.0 mi Calm Calm - 0.01 in Rain Light Rain
7:56 AM 52.0 °F 51.1 °F 97% 30.11 in 10.0 mi North 3.5 mph - 0.00 in   Overcast
8:11 AM 53.6 °F 51.8 °F 94% 30.12 in 3.0 mi Calm Calm - 0.01 in Rain Light Rain
8:13 AM 53.6 °F 51.8 °F 94% 30.12 in 2.5 mi Calm Calm - 0.01 in Rain Rain
8:22 AM 53.6 °F 51.8 °F 94% 30.13 in 3.0 mi Calm Calm - 0.02 in Rain Light Rain
8:56 AM 53.1 °F 52.0 °F 96% 30.13 in 5.0 mi Calm Calm - 0.03 in Rain Light Rain
9:03 AM 53.6 °F 51.8 °F 94% 30.14 in 2.5 mi Calm Calm - 0.01 in Rain Light Rain
9:12 AM 53.6 °F 51.8 °F 94% 30.15 in 3.0 mi Calm Calm - 0.01 in Rain Light Rain
9:56 AM 55.9 °F 48.0 °F 75% 30.15 in 10.0 mi Calm Calm - 0.01 in   Overcast
10:56 AM 57.0 °F 46.0 °F 67% 30.17 in 10.0 mi NW 8.1 mph - N/A   Clear
12:56 PM 59.0 °F 43.0 °F 55% 30.15 in 10.0 mi West 8.1 mph - N/A   Clear
1:56 PM 59.0 °F 44.1 °F 58% 30.15 in 10.0 mi NW 11.5 mph - N/A   Clear
2:56 PM 57.9 °F 43.0 °F 58% 30.16 in 10.0 mi WNW 5.8 mph - N/A   Clear
3:56 PM 55.9 °F 42.1 °F 60% 30.17 in 10.0 mi West 4.6 mph - N/A   Clear
4:56 PM 53.1 °F 43.0 °F 69% 30.18 in 10.0 mi ESE 3.5 mph - N/A   Clear
5:56 PM 48.9 °F 43.0 °F 80% 30.19 in 10.0 mi Calm Calm - N/A   Clear
6:56 PM 46.9 °F 43.0 °F 86% 30.22 in 10.0 mi Calm Calm - N/A   Clear
7:56 PM 46.9 °F 42.1 °F 83% 30.22 in 10.0 mi Calm Calm - N/A   Clear
8:56 PM 45.0 °F 42.1 °F 90% 30.24 in 10.0 mi Calm Calm - N/A   Clear
9:56 PM 44.1 °F 41.0 °F 89% 30.24 in 10.0 mi Calm Calm - N/A   Clear
10:56 PM 42.1 °F 39.9 °F 92% 30.24 in 9.0 mi Calm Calm - N/A   Clear
11:56 PM 42.1 °F 39.9 °F 92% 30.25 in 10.0 mi Calm Calm - N/A   Clear